Regional Weather Roundup
Issued by NWS

Home | Current Version | Previous Version | Text Only | Print | Product List | Glossary On
Versions: 1 2 3 4 5 6 7 8 9 10 11 12 13 14 15 16 17 18 19 20 21 22 23 24 25 26 27 28 29 30 31 32 33 34 35 36 37 38 39 40 41 42 43 44 45 46 47 48 49 50
000
ASUS44 KMEG 241110
RWRTN
TENNESSEE HOURLY STATE WEATHER ROUNDUP
NATIONAL WEATHER SERVICE MEMPHIS TN
600 AM CDT THU APR 24 2014

TNZ002-004-019-021-049-052-054-088>092-241200-
WEST TENNESSEE

CITY           SKY/WX    TMP DP  RH WIND       PRES   REMARKS
MEMPHIS INTL   PTCLDY    55  39  54 SE3       29.91S
NWS MEMPHIS      N/A     48 N/A N/A MISG        N/A
JACKSON        PTCLDY    48  37  65 CALM      29.94R
DYERSBURG      PTCLDY    48  34  57 SE5       29.94S
UNION CITY     CLEAR     45  37  76 E3        29.92F
PARIS          PTCLDY    48  33  56 SE6       29.95R
LEXINGTON      CLEAR     39  37  93 CALM      29.94S
SAVANNAH       PTCLDY    39  39 100 CALM      29.95S
$$

TNZ008-025-027-028-033-062-065-066-241200-
NORTH MIDDLE TENNESSEE

CITY           SKY/WX    TMP DP  RH WIND       PRES   REMARKS
NASHVILLE      PTCLDY    43  39  86 CALM      29.98F
DICKSON        PTCLDY    45  34  65 E3        29.95F
PORTLAND       MOCLDY    45  36  70 SE5       29.97F
CLARKSVILLE    PTCLDY    46  36  68 SE3       29.96F
SMYRNA         PTCLDY    39  39 100 CALM      30.00S
MURFREESBORO   PTCLDY    42  37  82 CALM      29.99R
COOKEVILLE     CLEAR     36  34  93 CALM      30.00R
LIVINGSTON     CLEAR     45  31  58 CALM      30.00R
GALLATIN       PTCLDY    43  37  79 CALM      29.99S
CROSSVILLE     CLEAR     41  33  73 CALM      30.02R
$$

TNZ061-075-076-078-094-096-097-241200-
SOUTH MIDDLE TENNESSEE

CITY           SKY/WX    TMP DP  RH WIND       PRES   REMARKS
LEWISBURG      PTCLDY    36  35  96 CALM      29.97S
FAYETTEVILLE   CLEAR     44  35  70 E9        29.97S
TULLAHOMA      CLEAR     39  36  87 CALM      29.99S
WINCHESTER     CLEAR     45  36  70 SE3       30.00R
MCMINNVILLE    CLEAR     39  37  93 N3        30.00R
COLUMBIA       CLEAR     39  39 100 CALM      29.96R
SHELBYVILLE    PTCLDY    39  37  93 E5        29.99R
$$

TNZ017-018-042-046-047-241200-
NORTHEAST TENNESSEE

CITY           SKY/WX    TMP DP  RH WIND       PRES   REMARKS
TRI CITIES     PTCLDY    35  29  78 CALM      30.05S
ELIZABETHTON   SUNNY     34  30  86 CALM      30.06R
$$

TNZ012-013-036-069-073-074-241200-
CENTRAL EAST TENNESSEE

CITY           SKY/WX    TMP DP  RH WIND       PRES   REMARKS
KNOXVILLE      CLEAR     44  34  67 NE5       30.03R
OAK RIDGE      CLEAR     44  36  73 CALM      30.04R
$$

TNZ083-085-099-241200-
SOUTHEAST TENNESSEE

CITY           SKY/WX    TMP DP  RH WIND       PRES   REMARKS
CHATTANOOGA    PTCLDY    45  41  86 CALM      30.03R
$$

SKY/WX REPORTED AS FAIR MEANS FEW OR NO CLOUDS BELOW
12 THOUSAND FEET.




USA.gov is the U.S. government's official web portal to all federal, state and local government web resources and services.